Regional Weather Roundup
Issued by NWS

Home | Current Version | Previous Version | Graphics & Text | Print | Product List | Glossary On
Versions: 1 2 3 4 5 6 7 8 9 10 11 12 13 14 15 16 17 18 19 20 21 22 23 24 25 26 27 28 29 30 31 32 33 34 35 36 37 38 39 40 41 42 43 44 45 46 47 48 49 50
000
ASUS43 KDTX 290601
RWRMI
MICHIGAN HOURLY REGIONAL WEATHER ROUNDUP
NATIONAL WEATHER SERVICE DETROIT/PONTIAC MI
100 AM EST THU JAN 29 2015

NOTE: "FAIR" INDICATES FEW OR NO CLOUDS BELOW 12,000 FEET WITH NO
SIGNIFICANT WEATHER AND/OR OBSTRUCTION TO VISIBILITY.

MIZ047>049-052>055-059>063-066>070-074>076-081>083-290700-
SOUTHEAST LOWER MICHIGAN

CITY           SKY/WX    TMP DP  RH WIND       PRES   REMARKS
ADRIAN         CLOUDY    25  16  68 S9        30.06F WCI  15
6HR MIN TEMP:  22; 6HR MAX TEMP:  25;

ALMA           CLOUDY    26  17  69 SE9       29.99F WCI  16
ANN ARBOR      CLOUDY    24  15  68 SE10      30.06F WCI  14
BAD AXE        CLOUDY    24  16  72 S15       30.07F WCI  11
CARO           CLOUDY    26  12  55 SE10      30.04F WCI  16
DETROIT CITY   CLOUDY    27  14  58 S10       30.11F WCI  17
6HR MIN TEMP:  24; 6HR MAX TEMP:  27;

DETROIT        CLOUDY    26  14  60 SE10      30.10F WCI  16
6HR MIN TEMP:  23; 6HR MAX TEMP:  26;

FLINT          CLOUDY    28  14  55 S15       30.03F WCI  16
6HR MIN TEMP:  26; 6HR MAX TEMP:  29;

GROSSE ILE     CLOUDY    25  18  74 SE13      30.09F WCI  13
HILLSDALE      CLOUDY    26  17  69 S12G18    29.99F WCI  15
6HR MIN TEMP:  22; 6HR MAX TEMP:  26;

HOWELL         CLOUDY    25  15  64 S15G21    30.02F WCI  13
6HR MIN TEMP:  23; 6HR MAX TEMP:  25;


CITY           SKY/WX    TMP DP  RH WIND       PRES   REMARKS
JACKSON        CLOUDY    27  16  63 S17       30.00F WCI  14
6HR MIN TEMP:  22; 6HR MAX TEMP:  27;

LAMBERTVILLE   CLOUDY    28  18  64 SE8       30.07F WCI  20
LANSING        CLOUDY    26  16  65 S16G24    30.00F WCI  14
6HR MIN TEMP:  24; 6HR MAX TEMP:  27;

LAPEER         CLOUDY    25  13  60 S8G17     30.06F WCI  16
MASON          CLOUDY    26  17  68 S15G23    30.01F WCI  13
MONROE         CLOUDY    25  16  68 SE8       30.07F WCI  16
MT. CLEMENS    CLOUDY    24  16  73 SE12      30.09F WCI  12
6HR MIN TEMP:  21; 6HR MAX TEMP:  24;

PONTIAC        CLOUDY    24  14  65 SE12      30.05F WCI  13
6HR MIN TEMP:  22; 6HR MAX TEMP:  25;

PORT HOPE        N/A     25  14  63 S10       30.06F WCI  15
6HR MIN TEMP:  24; 6HR MAX TEMP:  26;

PORT HURON     CLOUDY    23  16  74 S9        30.13F WCI  13
TRI CITIES     CLOUDY    28  11  48 S13       30.03F WCI  17
6HR MIN TEMP:  28; 6HR MAX TEMP:  30;

TROY           CLOUDY    27  13  55 S8        30.11F WCI  19
SAGINAW HB     CLOUDY    28  14  54 S14       30.03F WCI  17
$$
MIZ043>046-050>051-056>058-064>065-071>073-077>080-290700-
SOUTHWEST LOWER MICHIGAN

CITY           SKY/WX    TMP DP  RH WIND       PRES   REMARKS
BATTLE CREEK   CLOUDY    28  17  63 SE12      29.96F WCI  18
6HR MIN TEMP:  26; 6HR MAX TEMP:  28;

BENTON HARBOR  CLOUDY    31  20  63 S12G22    29.90F WCI  22
6HR MIN TEMP:  27; 6HR MAX TEMP:  31;

BIG RAPIDS     CLOUDY    27  15  61 SE10      29.92F WCI  17
6HR MIN TEMP:  27; 6HR MAX TEMP:  28;

COLDWATER      CLOUDY    28  18  68 S8G16     29.99S WCI  19
6HR MIN TEMP:  23; 6HR MAX TEMP:  28;

FREMONT        FAIR      27  13  54 SE8       29.91F WCI  19
HOLLAND        MOCLDY    29  18  63 SE14      29.91F WCI  18
6HR MIN TEMP:  29; 6HR MAX TEMP:  30;

GRAND RAPIDS   CLOUDY    27  16  63 SE12      29.94F WCI  17
6HR MIN TEMP:  27; 6HR MAX TEMP:  28;

IONIA          FAIR      27  18  70 SE12      29.95F WCI  17
KALAMAZOO      CLOUDY    28  17  63 S12       29.95F WCI  18
6HR MIN TEMP:  25; 6HR MAX TEMP:  28;

LUDINGTON      CLOUDY    31  12  46 S9        29.88F WCI  23
6HR MIN TEMP:  31; 6HR MAX TEMP:  31;

MARSHALL       CLOUDY    26  17  66 S9G16     29.97F WCI  17
MOUNT PLEASANT CLOUDY    26  15  61 SE12      29.98F WCI  16
6HR MIN TEMP:  26; 6HR MAX TEMP:  27;

MUSKEGON       CLOUDY    29  17  61 SE12      29.91F WCI  19
6HR MIN TEMP:  28; 6HR MAX TEMP:  30;

SOUTH HAVEN    CLOUDY    32  19  59 S13G18    29.91F WCI  22
$$
MIZ016>042-290700-
NORTHERN LOWER MICHIGAN

CITY           SKY/WX    TMP DP  RH WIND       PRES   REMARKS
ALPENA         CLOUDY    26  13  57 S10       30.02F WCI  16
6HR MIN TEMP:  25; 6HR MAX TEMP:  26;

BEAVER ISLAND  CLOUDY    28  15  58 SE7       29.90F WCI  21
6HR MIN TEMP:  28; 6HR MAX TEMP:  29;

BELLAIRE       CLOUDY    30  11  44 S7        29.93F WCI  23
6HR MIN TEMP:  29; 6HR MAX TEMP:  31;

CADILLAC       CLOUDY    25  11  55 SE9       29.88F WCI  15
CHARLEVOIX     CLOUDY    29  11  48 SE7       29.94F WCI  21
6HR MIN TEMP:  28; 6HR MAX TEMP:  29;

FRANKFORT      CLOUDY    30  13  48 S9        29.89F WCI  22
GAYLORD        CLOUDY    24   8  50 SE10      29.91F WCI  14
6HR MIN TEMP:  24; 6HR MAX TEMP:  26;

GRAYLING       CLOUDY    26   9  50 SE9       29.94F WCI  16
HARBOR SPRINGS CLOUDY    28  12  50 E7        29.92F WCI  21
HOUGHTON LAKE  CLOUDY    25   9  50 SE12G20   29.95F WCI  14
6HR MIN TEMP:  25; 6HR MAX TEMP:  26;

MANISTEE       CLOUDY    30   9  40 SE7       29.90F WCI  23
OSCODA         CLOUDY    25  14  61 S10       30.05F WCI  15
PELLSTON       CLOUDY    28  12  51 SE13      29.93F WCI  17
6HR MIN TEMP:  27; 6HR MAX TEMP:  29;

ROGERS CITY    CLOUDY    27  15  62 S13       30.00F WCI  16
TRAVERSE CITY  CLOUDY    29  10  45 VRB6      29.90F WCI  23
6HR MIN TEMP:  29; 6HR MAX TEMP:  30;

$$
MIZ007>008-015-290700-
EASTERN UPPER MICHIGAN

CITY           SKY/WX    TMP DP  RH WIND       PRES   REMARKS
KINROSS        CLOUDY    27  18  69 SE14      29.94F WCI  15
6HR MIN TEMP:  23; 6HR MAX TEMP:  27;

MACKINAC ISLAN CLOUDY    28  12  50 SE10G17   29.93F WCI  19
6HR MIN TEMP:  27; 6HR MAX TEMP:  30;

NEWBERRY       CLOUDY    26  15  62 SE7       29.90F WCI  18
6HR MIN TEMP:  22; 6HR MAX TEMP:  26;

S. S. MARIE    CLOUDY    25  17  72 E7        29.95F WCI  17
6HR MIN TEMP:  21; 6HR MAX TEMP:  25; 6HR PCP: TRACE;

MUNISING         N/A     31  20  63 S6        29.86F WCI  25
6HR MIN TEMP:  31; 6HR MAX TEMP:  33;

$$
MIZ004>006-011>014-085-290700-
CENTRAL UPPER MICHIGAN

CITY           SKY/WX    TMP DP  RH WIND       PRES   REMARKS
MANISTIQUE     CLOUDY    30  22  71 SE10      29.88F WCI  21
ESCANABA       CLOUDY    30  21  69 SE8       29.86F WCI  23
6HR MIN TEMP:  30; 6HR MAX TEMP:  30;

MENOMINEE      CLOUDY    30  23  74 S9        29.83F WCI  22
6HR MIN TEMP:  30; 6HR MAX TEMP:  32;

SAWYER-GWINN   CLOUDY    28  21  75 S9        29.82F WCI  19
6HR MIN TEMP:  28; 6HR MAX TEMP:  29;

$$
MIZ001>003-009>011-084-290700-
WESTERN UPPER MICHIGAN

CITY           SKY/WX    TMP DP  RH WIND       PRES   REMARKS
IRON MOUNTAIN  CLOUDY    28  23  81 SE6       29.80F WCI  22
6HR MIN TEMP:  27; 6HR MAX TEMP:  28;

HOUGHTON       LGT SNOW  28  22  78 S5        29.79F WCI  23
6HR MIN TEMP:  28; 6HR MAX TEMP:  30; 6HR PCP: TRACE;

COPPER HARBOR    N/A     30  26  85 SW7       29.81F WCI  23
6HR MIN TEMP:  30; 6HR MAX TEMP:  32; 6HR PCP:  0.01;

IRONWOOD       CLOUDY    28  21  74 SW8       29.77F WCI  20
6HR MIN TEMP:  28; 6HR MAX TEMP:  30;

$$

ABBREVIATIONS USED IN REMARKS
   TC - TEMPERATURE IN CELSIUS
  WCI - WIND CHILL INDEX
   HX - HEAT INDEX
  VSB - VISIBILITY




USA.gov is the U.S. government's official web portal to all federal, state and local government web resources and services.